CW4199 Weather Reports


Display with metric or nautical units.
time (UTC)temp
F
wind
direction
speed
MPH
gust
MPH
rain 1hr
in
rain 24hr
in
rain mn
in
humidity
%
barometer
mb
20260509153905 71 296 4.0 9.0 0.00 0.00 0.00 65 1011.2
20260509153405 71 342 5.0 9.0 0.00 0.00 0.00 66 1011.1
20260509152904 70 358 3.0 9.0 0.00 0.00 0.00 67 1011.2
20260509152404 71 275 4.0 7.0 0.00 0.00 0.00 68 1011.1
20260509151905 70 310 3.0 7.0 0.00 0.00 0.00 69 1011.1
20260509151404 70 289 4.0 8.0 0.00 0.00 0.00 69 1011.2
20260509150904 70 347 3.0 7.0 0.00 0.00 0.00 70 1011.2
20260509150405 69 300 5.0 9.0 0.00 0.00 0.00 70 1011.2
20260509145405 69 304 2.0 9.0 0.00 0.00 0.00 72 1011.2
20260509144905 69 270 3.0 10.0 0.00 0.00 0.00 72 1011.2
20260509144405 68 290 5.0 8.0 0.00 0.00 0.00 73 1011.2
20260509143905 68 292 6.0 10.0 0.00 0.00 0.00 73 1011.2
20260509142904 67 292 3.0 8.0 0.00 0.00 0.00 74 1011.2
20260509142405 67 282 5.0 9.0 0.00 0.00 0.00 74 1011.2
20260509140905 66 280 3.0 10.0 0.00 0.00 0.00 76 1011.0
20260509140405 66 296 5.0 8.0 0.00 0.00 0.00 77 1011.0
20260509135905 65 297 5.0 8.0 0.00 0.00 0.00 77 1010.9
20260509135405 65 334 6.0 12.0 0.00 0.00 0.00 76 1010.9
20260509134905 65 295 4.0 9.0 0.00 0.00 0.00 77 1010.9
20260509134404 65 282 6.0 10.0 0.00 0.00 0.00 78 1010.8
20260509133405 64 287 6.0 10.0 0.00 0.00 0.00 79 1010.7
20260509132905 64 292 3.0 8.0 0.00 0.00 0.00 80 1010.7
20260509132405 63 282 3.0 7.0 0.00 0.00 0.00 80 1010.8
20260509131404 63 291 3.0 7.0 0.00 0.00 0.00 80 1010.8
20260509130904 62 293 4.0 10.0 0.00 0.00 0.00 81 1010.9
20260509130405 62 299 3.0 8.0 0.00 0.00 0.00 82 1010.9
20260509125905 62 305 2.0 5.0 0.00 0.00 0.00 82 1010.8
20260509124905 61 245 1.0 6.0 0.00 0.00 0.00 83 1010.6
20260509124405 60 250 2.0 3.0 0.00 0.00 0.00 84 1010.6
20260509123905 60 240 2.0 5.0 0.00 0.00 0.00 84 1010.6
20260509123405 60 239 1.0 3.0 0.00 0.00 0.00 84 1010.7
20260509122405 59 295 2.0 6.0 0.00 0.00 0.00 85 1010.8
20260509121905 59 231 1.0 3.0 0.00 0.00 0.00 85 1010.8
20260509121404 58 272 2.0 3.0 0.00 0.00 0.00 86 1010.8
20260509120905 58 229 0.0 2.0 0.00 0.00 0.00 86 1010.8
20260509120405 57 229 1.0 3.0 0.00 0.00 0.00 87 1010.7
20260509115905 57 239 1.0 3.0 0.00 0.00 0.00 87 1010.7
20260509115405 57 220 2.0 3.0 0.00 0.00 0.00 87 1010.7
20260509114904 56 192 1.0 3.0 0.00 0.00 0.00 87 1010.4
20260509114404 56 169 0.0 3.0 0.00 0.00 0.00 88 1010.4
20260509113904 56 247 1.0 2.0 0.00 0.00 0.00 87 1010.2
20260509113404 56 217 1.0 2.0 0.00 0.00 0.00 87 1010.1
20260509112904 56 217 1.0 2.0 0.00 0.00 0.00 87 1010.0
20260509112405 56 217 1.0 3.0 0.00 0.00 0.00 87 1009.9
20260509111405 56 217 2.0 5.0 0.00 0.00 0.00 87 1009.8
20260509110905 56 227 3.0 10.0 0.00 0.00 0.00 87 1009.8
20260509110404 56 238 2.0 7.0 0.00 0.00 0.00 86 1009.8
20260509105905 56 214 4.0 7.0 0.00 0.00 0.00 86 1009.7
20260509105404 56 220 5.0 7.0 0.00 0.00 0.00 86 1009.6
20260509104905 56 211 3.0 7.0 0.00 0.00 0.00 86 1009.4
20260509104405 56 229 2.0 9.0 0.00 0.00 0.00 86 1009.4
20260509103405 56 225 2.0 6.0 0.00 0.00 0.00 86 1009.2
20260509102905 56 206 4.0 9.0 0.00 0.00 0.00 86 1009.2
20260509102405 56 181 3.0 6.0 0.00 0.00 0.00 85 1009.1
20260509101404 57 208 4.0 9.0 0.00 0.00 0.00 85 1009.2
20260509100904 57 222 3.0 12.0 0.00 0.00 0.00 85 1009.3
20260509100405 57 228 3.0 7.0 0.00 0.00 0.00 85 1009.4
20260509095905 57 209 5.0 7.0 0.00 0.00 0.00 85 1009.3
20260509095405 57 219 5.0 9.0 0.00 0.00 0.00 85 1009.2
20260509094905 57 207 5.0 10.0 0.00 0.00 0.00 85 1009.2
20260509094405 57 196 4.0 12.0 0.00 0.00 0.00 85 1009.3
20260509093904 57 198 5.0 8.0 0.00 0.00 0.00 85 1009.3
20260509093404 57 222 4.0 8.0 0.00 0.00 0.00 84 1009.5
20260509092905 57 218 5.0 7.0 0.00 0.00 0.00 84 1009.4
20260509091905 57 205 5.0 9.0 0.00 0.00 0.00 84 1009.4
20260509091404 57 199 5.0 9.0 0.00 0.00 0.00 84 1009.5
20260509090905 57 193 5.0 9.0 0.00 0.00 0.00 84 1009.5
20260509090404 56 194 2.0 6.0 0.00 0.00 0.00 84 1009.5
20260509085405 56 201 3.0 7.0 0.00 0.00 0.00 84 1009.8
20260509084405 56 198 3.0 6.0 0.00 0.00 0.00 84 1009.9
20260509083905 56 196 2.0 3.0 0.00 0.00 0.00 84 1009.8
20260509083405 56 197 3.0 6.0 0.00 0.00 0.00 84 1009.7
20260509082905 56 201 3.0 6.0 0.00 0.00 0.00 83 1009.7
20260509081904 57 210 1.0 5.0 0.00 0.00 0.00 83 1009.7
20260509080404 57 192 3.0 6.0 0.00 0.00 0.00 82 1009.8
20260509075905 57 191 2.0 6.0 0.00 0.00 0.00 82 1009.6
20260509075405 57 197 3.0 6.0 0.00 0.00 0.00 82 1009.7
20260509074404 57 201 3.0 6.0 0.00 0.00 0.00 82 1009.8
20260509073404 57 197 4.0 7.0 0.00 0.00 0.00 81 1009.6
20260509072904 57 212 4.0 7.0 0.00 0.00 0.00 81 1009.6
20260509072404 57 206 5.0 8.0 0.00 0.00 0.00 81 1009.6
20260509071904 57 194 4.0 7.0 0.00 0.00 0.00 80 1009.7
20260509071405 57 195 4.0 8.0 0.00 0.00 0.00 80 1009.9
20260509070905 58 196 5.0 7.0 0.00 0.00 0.00 80 1010.0
20260509070404 58 208 3.0 7.0 0.00 0.00 0.00 80 1010.2
20260509065904 58 214 3.0 7.0 0.00 0.00 0.00 79 1010.4
20260509065404 58 208 3.0 5.0 0.00 0.00 0.00 79 1010.3
20260509064405 58 208 5.0 9.0 0.00 0.00 0.00 79 1010.2
20260509063905 58 188 7.0 12.0 0.00 0.00 0.00 79 1010.0
20260509063405 58 191 5.0 8.0 0.00 0.00 0.00 78 1010.1
20260509062404 58 212 4.0 7.0 0.00 0.00 0.00 78 1010.6
20260509061904 58 214 4.0 8.0 0.00 0.00 0.00 78 1010.6
20260509061404 58 203 5.0 9.0 0.00 0.00 0.00 78 1010.6
20260509060905 58 190 6.0 10.0 0.00 0.00 0.00 78 1010.5
20260509060405 58 218 7.0 12.0 0.00 0.00 0.00 78 1010.6
20260509055904 58 196 6.0 9.0 0.00 0.00 0.00 78 1010.6
20260509055404 58 172 3.0 8.0 0.00 0.00 0.00 78 1010.8
20260509054905 58 206 4.0 12.0 0.00 0.00 0.00 77 1010.9
20260509054405 58 220 5.0 8.0 0.00 0.00 0.00 77 1010.9
20260509053904 59 214 5.0 8.0 0.00 0.00 0.00 77 1010.9
20260509053404 59 214 3.0 7.0 0.00 0.00 0.00 77 1011.0
20260509052904 59 189 3.0 7.0 0.00 0.00 0.00 77 1010.9
20260509052405 59 214 5.0 9.0 0.00 0.00 0.00 76 1011.0
20260509051905 59 206 5.0 7.0 0.00 0.00 0.00 76 1011.1
20260509051404 59 214 3.0 6.0 0.00 0.00 0.00 76 1011.1
20260509050905 59 223 2.0 5.0 0.00 0.00 0.00 75 1011.2
20260509050405 59 232 3.0 7.0 0.00 0.00 0.00 75 1011.0
20260509045904 59 213 3.0 6.0 0.00 0.00 0.00 75 1011.2
20260509045404 59 213 5.0 7.0 0.00 0.00 0.00 75 1011.1
20260509044905 59 230 3.0 8.0 0.00 0.00 0.00 75 1011.1
20260509044404 59 217 4.0 8.0 0.00 0.00 0.00 75 1011.3
20260509043904 59 215 5.0 9.0 0.00 0.00 0.00 75 1011.2
20260509042905 60 210 5.0 9.0 0.00 0.00 0.00 74 1011.2
20260509042404 60 203 4.0 7.0 0.00 0.00 0.00 73 1011.0
20260509040905 60 214 3.0 7.0 0.00 0.00 0.00 72 1011.2
20260509040404 61 206 6.0 12.0 0.00 0.00 0.00 71 1011.0
20260509035904 61 200 5.0 12.0 0.00 0.00 0.00 71 1010.8
20260509035404 61 198 6.0 12.0 0.00 0.00 0.00 70 1011.0
20260509034904 61 205 6.0 10.0 0.00 0.00 0.00 70 1011.2
20260509034405 61 196 5.0 9.0 0.00 0.00 0.00 69 1011.2
20260509033905 61 198 6.0 12.0 0.00 0.00 0.00 69 1011.2
20260509033404 61 199 5.0 10.0 0.00 0.00 0.00 69 1011.2
20260509032904 61 206 4.0 8.0 0.00 0.00 0.00 68 1011.2
20260509032404 62 196 7.0 10.0 0.00 0.00 0.00 68 1011.0
20260509031905 62 197 5.0 8.0 0.00 0.00 0.00 68 1011.0
20260509031404 62 194 5.0 6.0 0.00 0.00 0.00 67 1011.2
20260509030904 62 186 4.0 8.0 0.00 0.00 0.00 67 1011.2
20260509030404 63 212 4.0 9.0 0.00 0.00 0.00 66 1011.2
20260509025904 63 201 5.0 9.0 0.00 0.00 0.00 66 1011.2
20260509025404 63 204 5.0 10.0 0.00 0.00 0.00 65 1011.4
20260509024904 63 209 5.0 8.0 0.00 0.00 0.00 65 1011.4
20260509024404 63 212 5.0 8.0 0.00 0.00 0.00 64 1011.5
20260509023905 64 189 4.0 12.0 0.00 0.00 0.00 64 1011.3
20260509023405 64 206 4.0 9.0 0.00 0.00 0.00 63 1011.2
20260509022904 64 201 4.0 8.0 0.00 0.00 0.00 63 1011.2
20260509022405 64 194 5.0 9.0 0.00 0.00 0.00 62 1011.1
20260509021405 65 195 5.0 9.0 0.00 0.00 0.00 61 1011.1
20260509020405 65 202 5.0 12.0 0.00 0.00 0.00 61 1011.1
20260509015904 65 199 5.0 8.0 0.00 0.00 0.00 61 1011.1
20260509015404 65 195 3.0 6.0 0.00 0.00 0.00 61 1011.1
20260509014905 65 211 4.0 8.0 0.00 0.00 0.00 60 1010.9
20260509014404 66 206 6.0 10.0 0.00 0.00 0.00 59 1010.9
20260509013904 66 198 5.0 10.0 0.00 0.00 0.00 59 1010.9
20260509013404 66 195 6.0 10.0 0.00 0.00 0.00 59 1010.9
20260509012904 66 194 3.0 7.0 0.00 0.00 0.00 59 1010.9
20260509011904 67 201 3.0 8.0 0.00 0.00 0.00 58 1010.9
20260509011404 67 201 3.0 7.0 0.00 0.00 0.00 57 1010.9
20260509010904 67 205 4.0 6.0 0.00 0.00 0.00 57 1010.9
20260509005904 68 194 4.0 8.0 0.00 0.00 0.00 57 1011.0
20260509004905 68 206 5.0 9.0 0.00 0.00 0.00 55 1010.9
20260509004404 68 218 4.0 7.0 0.00 0.00 0.00 55 1010.9
20260509003904 69 188 5.0 12.0 0.00 0.00 0.00 55 1010.8
20260509002905 69 193 6.0 12.0 0.00 0.00 0.00 54 1010.7
20260509002404 70 199 3.0 12.0 0.00 0.00 0.00 53 1010.7
20260509001405 70 203 3.0 6.0 0.00 0.00 0.00 51 1010.5
20260509000405 71 210 4.0 7.0 0.00 0.00 0.00 49 1010.6
20260508235904 71 206 3.0 7.0 0.00 0.00 0.00 48 1010.6
20260508234904 71 196 5.0 8.0 0.00 0.00 0.00 47 1010.6
20260508234405 71 198 2.0 6.0 0.00 0.00 0.00 47 1010.7
20260508233905 71 218 5.0 9.0 0.00 0.00 0.00 46 1010.8
20260508233404 72 203 4.0 7.0 0.00 0.00 0.00 47 1010.9
20260508232904 72 219 3.0 9.0 0.00 0.00 0.00 46 1011.1
20260508232404 72 215 3.0 9.0 0.00 0.00 0.00 45 1011.1
20260508231905 72 224 4.0 10.0 0.00 0.00 0.00 45 1011.1
20260508231404 72 202 6.0 12.0 0.00 0.00 0.00 47 1011.1
20260508230904 73 187 5.0 10.0 0.00 0.00 0.00 47 1011.1
20260508225404 73 245 5.0 10.0 0.00 0.00 0.00 46 1011.2
20260508224904 73 226 5.0 9.0 0.00 0.00 0.00 45 1011.3
20260508223904 74 194 5.0 8.0 0.00 0.00 0.00 46 1011.3
20260508223404 74 182 5.0 9.0 0.00 0.00 0.00 45 1011.2
20260508222905 74 217 3.0 8.0 0.00 0.00 0.00 43 1011.3
20260508222404 74 213 6.0 17.0 0.00 0.00 0.00 44 1011.3
20260508221904 74 205 6.0 10.0 0.00 0.00 0.00 43 1011.3
20260508221405 74 187 5.0 13.0 0.00 0.00 0.00 44 1011.3
20260508220904 74 184 4.0 10.0 0.00 0.00 0.00 45 1011.3
20260508220404 74 198 5.0 12.0 0.00 0.00 0.00 45 1011.3
20260508215904 74 181 7.0 12.0 0.00 0.00 0.00 44 1011.4
20260508214904 75 195 5.0 12.0 0.00 0.00 0.00 44 1011.4
20260508214404 74 179 6.0 12.0 0.00 0.00 0.00 44 1011.3
20260508213904 74 205 7.0 10.0 0.00 0.00 0.00 43 1011.3
20260508213404 74 212 6.0 12.0 0.00 0.00 0.00 43 1011.3
20260508212904 75 198 9.0 13.0 0.00 0.00 0.00 44 1011.4
20260508212404 74 223 6.0 14.0 0.00 0.00 0.00 44 1011.3
20260508211404 74 198 6.0 12.0 0.00 0.00 0.00 43 1011.4
20260508210904 74 198 6.0 10.0 0.00 0.00 0.00 44 1011.4
20260508210405 75 202 6.0 10.0 0.00 0.00 0.00 44 1011.4
20260508205904 75 202 7.0 13.0 0.00 0.00 0.00 43 1011.5
20260508204905 75 155 4.0 8.0 0.00 0.00 0.00 47 1011.6
20260508204404 74 221 3.0 7.0 0.00 0.00 0.00 45 1011.6
20260508203404 74 80 1.0 7.0 0.00 0.00 0.00 45 1011.8
20260508202405 74 193 6.0 10.0 0.00 0.00 0.00 46 1011.8
20260508201905 74 132 4.0 8.0 0.00 0.00 0.00 46 1012.0
20260508201404 74 158 6.0 10.0 0.00 0.00 0.00 45 1012.0
20260508200904 74 217 2.0 6.0 0.00 0.00 0.00 44 1012.1
20260508200404 74 230 3.0 6.0 0.00 0.00 0.00 45 1012.2
20260508195905 74 183 5.0 10.0 0.00 0.00 0.00 45 1012.4
20260508195404 74 208 5.0 8.0 0.00 0.00 0.00 45 1012.5
20260508194904 74 198 7.0 12.0 0.00 0.00 0.00 44 1012.6
20260508194404 74 225 6.0 10.0 0.00 0.00 0.00 44 1012.7
20260508193904 73 223 1.0 3.0 0.00 0.00 0.00 47 1012.7
20260508193404 73 223 2.0 7.0 0.00 0.00 0.00 44 1012.9
20260508192904 74 262 3.0 13.0 0.00 0.00 0.00 45 1012.9
20260508191905 73 151 3.0 12.0 0.00 0.00 0.00 47 1013.0
20260508191404 72 159 6.0 12.0 0.00 0.00 0.00 46 1013.2
20260508190904 72 175 5.0 10.0 0.00 0.00 0.00 45 1013.4
20260508190404 72 195 3.0 8.0 0.00 0.00 0.00 44 1013.5
20260508185904 72 192 3.0 8.0 0.00 0.00 0.00 43 1013.5
20260508185404 72 161 5.0 12.0 0.00 0.00 0.00 46 1013.7
20260508184904 72 175 6.0 9.0 0.00 0.00 0.00 45 1013.7
20260508183904 72 156 6.0 10.0 0.00 0.00 0.00 46 1013.7
20260508183404 72 201 2.0 12.0 0.00 0.00 0.00 43 1013.9
20260508182904 72 262 3.0 8.0 0.00 0.00 0.00 44 1013.9
20260508182404 72 149 6.0 12.0 0.00 0.00 0.00 44 1014.1
20260508181904 72 188 3.0 8.0 0.00 0.00 0.00 49 1014.2
20260508181404 72 205 5.0 10.0 0.00 0.00 0.00 46 1014.2
20260508180904 71 239 3.0 9.0 0.00 0.00 0.00 49 1014.3
20260508180404 71 96 2.0 7.0 0.00 0.00 0.00 47 1014.5
20260508175904 71 224 5.0 8.0 0.00 0.00 0.00 45 1014.6
20260508175404 71 261 4.0 9.0 0.00 0.00 0.00 48 1014.6
20260508174404 70 152 7.0 12.0 0.00 0.00 0.00 47 1015.0
20260508173904 70 164 4.0 13.0 0.00 0.00 0.00 47 1015.1
20260508173404 70 175 7.0 12.0 0.00 0.00 0.00 45 1015.1
20260508172905 70 207 6.0 10.0 0.00 0.00 0.00 48 1015.2
20260508172404 70 212 5.0 12.0 0.00 0.00 0.00 46 1015.2
20260508171904 70 219 4.0 15.0 0.00 0.00 0.00 48 1015.3
20260508171404 69 139 6.0 10.0 0.00 0.00 0.00 46 1015.4
20260508170904 69 193 7.0 12.0 0.00 0.00 0.00 46 1015.6
20260508170405 69 191 7.0 12.0 0.00 0.00 0.00 43 1015.7
20260508165904 69 197 6.0 12.0 0.00 0.00 0.00 45 1015.8
20260508165404 69 184 5.0 12.0 0.00 0.00 0.00 47 1015.9
20260508164904 69 149 6.0 13.0 0.00 0.00 0.00 45 1015.9
20260508164404 69 182 4.0 9.0 0.00 0.00 0.00 45 1015.9
20260508163904 69 140 5.0 12.0 0.00 0.00 0.00 48 1016.0
20260508162904 68 178 4.0 8.0 0.00 0.00 0.00 46 1016.1
20260508161904 68 148 5.0 13.0 0.00 0.00 0.00 48 1016.4
20260508155904 67 173 5.0 9.0 0.00 0.00 0.00 50 1016.6
20260508155404 67 225 4.0 9.0 0.00 0.00 0.00 48 1016.7
20260508154904 67 178 6.0 10.0 0.00 0.00 0.00 52 1016.7
20260508154404 66 200 6.0 12.0 0.00 0.00 0.00 53 1016.8